| time (UTC) | temp F | wind direction | speed knots | gust knots | rain 1hr in | rain 24hr in | rain mn in | humidity % | barometer mb |
| 20260506143123 | 53 | 135 | 0.0 | 0.0 | 0.00 | 0.00 | 0.00 | 87 | 1017.5 |
| 20260506142123 | 53 | 158 | 0.0 | 0.0 | 0.00 | 0.00 | 0.00 | 88 | 1017.5 |
| 20260506141125 | 53 | 158 | 0.0 | 0.0 | 0.00 | 0.00 | 0.00 | 89 | 1017.4 |
| 20260506140124 | 52 | 158 | 0.0 | 0.0 | 0.00 | 0.00 | 0.00 | 89 | 1017.5 |
| 20260506135125 | 52 | 158 | 0.0 | 0.0 | 0.00 | 0.00 | 0.00 | 89 | 1017.5 |
| 20260506134124 | 52 | 158 | 0.0 | 0.0 | 0.00 | 0.00 | 0.00 | 89 | 1017.4 |
| 20260506133124 | 52 | 135 | 0.0 | 0.0 | 0.00 | 0.00 | 0.00 | 89 | 1017.4 |
| 20260506132123 | 52 | 158 | 0.0 | 0.0 | 0.00 | 0.00 | 0.00 | 89 | 1017.4 |
| 20260506131124 | 52 | 158 | 0.0 | 0.0 | 0.00 | 0.00 | 0.00 | 89 | 1017.4 |
| 20260506130123 | 51 | 158 | 0.0 | 0.0 | 0.00 | 0.00 | 0.00 | 88 | 1017.2 |
| 20260506125125 | 51 | 158 | 0.0 | 0.0 | 0.00 | 0.00 | 0.00 | 89 | 1017.0 |
| 20260506124147 | 51 | 158 | 0.0 | 0.0 | 0.00 | 0.00 | 0.00 | 89 | 1017.0 |
| 20260506123125 | 51 | 158 | 0.0 | 0.0 | 0.00 | 0.00 | 0.00 | 90 | 1017.0 |
| 20260506122123 | 51 | 158 | 0.0 | 0.0 | 0.00 | 0.00 | 0.00 | 90 | 1017.0 |
| 20260506121123 | 51 | 135 | 0.0 | 0.0 | 0.00 | 0.00 | 0.00 | 89 | 1016.9 |
| 20260506120123 | 50 | 158 | 0.0 | 0.0 | 0.00 | 0.00 | 0.00 | 90 | 1016.9 |
| 20260506115123 | 50 | 158 | 0.0 | 0.0 | 0.00 | 0.00 | 0.00 | 90 | 1016.9 |
| 20260506114123 | 50 | 158 | 0.0 | 0.0 | 0.00 | 0.00 | 0.00 | 90 | 1016.8 |
| 20260506113124 | 50 | 158 | 0.0 | 0.0 | 0.00 | 0.00 | 0.00 | 91 | 1016.8 |
| 20260506112124 | 49 | 135 | 0.0 | 0.0 | 0.00 | 0.00 | 0.00 | 92 | 1016.8 |
| 20260506111147 | 49 | 135 | 0.0 | 0.0 | 0.00 | 0.00 | 0.00 | 91 | 1016.5 |
| 20260506110123 | 49 | 135 | 0.0 | 0.0 | 0.00 | 0.00 | 0.00 | 92 | 1016.5 |
| 20260506105123 | 48 | 135 | 0.0 | 0.0 | 0.00 | 0.00 | 0.00 | 91 | 1016.5 |
| 20260506104144 | 48 | 135 | 0.0 | 0.0 | 0.00 | 0.00 | 0.00 | 91 | 1016.4 |
| 20260506103144 | 48 | 158 | 0.0 | 0.0 | 0.00 | 0.00 | 0.00 | 90 | 1016.4 |
| 20260506102123 | 48 | 158 | 0.0 | 0.0 | 0.00 | 0.00 | 0.00 | 90 | 1016.3 |
| 20260506101123 | 48 | 158 | 0.0 | 0.0 | 0.00 | 0.00 | 0.00 | 89 | 1016.3 |
| 20260506100124 | 49 | 158 | 0.0 | 0.0 | 0.00 | 0.00 | 0.00 | 89 | 1016.3 |
| 20260506095124 | 49 | 158 | 0.0 | 0.0 | 0.00 | 0.00 | 0.00 | 89 | 1016.2 |
| 20260506094123 | 49 | 158 | 0.0 | 0.0 | 0.00 | 0.00 | 0.00 | 89 | 1016.3 |
| 20260506093123 | 49 | 180 | 0.0 | 0.0 | 0.00 | 0.00 | 0.00 | 88 | 1016.3 |
| 20260506092123 | 49 | 158 | 0.0 | 0.0 | 0.00 | 0.00 | 0.00 | 88 | 1016.3 |
| 20260506091123 | 50 | 158 | 0.0 | 0.0 | 0.00 | 0.00 | 0.00 | 88 | 1016.2 |
| 20260506090123 | 50 | 158 | 0.0 | 0.0 | 0.00 | 0.00 | 0.00 | 88 | 1016.2 |
| 20260506085123 | 50 | 135 | 0.0 | 0.0 | 0.00 | 0.00 | 0.00 | 87 | 1016.2 |
| 20260506084125 | 50 | 158 | 0.0 | 0.0 | 0.00 | 0.00 | 0.00 | 87 | 1016.2 |
| 20260506083125 | 50 | 158 | 0.0 | 0.0 | 0.00 | 0.00 | 0.00 | 88 | 1016.2 |
| 20260506082124 | 50 | 113 | 0.0 | 0.0 | 0.00 | 0.00 | 0.00 | 87 | 1016.0 |
| 20260506081123 | 50 | 113 | 0.0 | 0.0 | 0.00 | 0.00 | 0.00 | 87 | 1016.2 |
| 20260506080123 | 50 | 158 | 0.0 | 0.0 | 0.00 | 0.00 | 0.00 | 87 | 1016.0 |
| 20260506073123 | 51 | 158 | 0.0 | 0.0 | 0.00 | 0.00 | 0.00 | 86 | 1015.8 |
| 20260506072124 | 51 | 158 | 0.0 | 0.0 | 0.00 | 0.00 | 0.00 | 86 | 1015.7 |
| 20260506071124 | 51 | 158 | 0.0 | 0.0 | 0.00 | 0.00 | 0.00 | 86 | 1015.7 |
| 20260506070126 | 51 | 180 | 0.0 | 0.0 | 0.00 | 0.00 | 0.00 | 85 | 1015.5 |
| 20260506062123 | 53 | 158 | 0.0 | 0.0 | 0.00 | 0.00 | 0.00 | 83 | 1015.2 |
| 20260506061123 | 53 | 135 | 0.0 | 0.0 | 0.00 | 0.00 | 0.00 | 82 | 1015.2 |
| 20260506060125 | 53 | 158 | 0.0 | 0.0 | 0.00 | 0.00 | 0.00 | 82 | 1015.2 |
| 20260506051144 | 55 | 225 | 0.0 | 0.0 | 0.00 | 0.00 | 0.00 | 81 | 1014.9 |
| 20260506050123 | 56 | 158 | 0.0 | 0.0 | 0.00 | 0.00 | 0.00 | 81 | 1014.7 |
| 20260506045123 | 56 | 248 | 0.0 | 0.0 | 0.00 | 0.00 | 0.00 | 81 | 1014.5 |
| 20260506044125 | 57 | 158 | 0.0 | 0.0 | 0.00 | 0.00 | 0.00 | 80 | 1014.5 |
| 20260506043125 | 58 | 180 | 0.0 | 0.0 | 0.00 | 0.00 | 0.00 | 78 | 1014.5 |
| 20260506042125 | 59 | 158 | 0.0 | 0.0 | 0.00 | 0.00 | 0.00 | 76 | 1014.4 |
| 20260506041123 | 60 | 113 | 0.0 | 2.6 | 0.00 | 0.00 | 0.00 | 73 | 1014.0 |
| 20260506040123 | 61 | 123 | 0.9 | 6.1 | 0.00 | 0.00 | 0.00 | 71 | 1014.0 |
| 20260506035123 | 62 | 127 | 1.7 | 7.0 | 0.00 | 0.00 | 0.00 | 70 | 1013.9 |
| 20260506034123 | 62 | 128 | 2.6 | 11.3 | 0.00 | 0.00 | 0.00 | 69 | 1013.8 |
| 20260506033123 | 62 | 142 | 4.3 | 11.3 | 0.00 | 0.00 | 0.00 | 69 | 1013.8 |
| 20260506032145 | 63 | 130 | 2.6 | 12.2 | 0.00 | 0.00 | 0.00 | 68 | 1013.7 |
| 20260506031124 | 63 | 135 | 4.3 | 11.3 | 0.00 | 0.00 | 0.00 | 68 | 1013.7 |
| 20260506030125 | 63 | 125 | 3.5 | 10.4 | 0.00 | 0.00 | 0.00 | 67 | 1013.5 |
| 20260506025144 | 64 | 138 | 3.5 | 11.3 | 0.00 | 0.00 | 0.00 | 66 | 1013.4 |
| 20260506024123 | 65 | 116 | 4.3 | 15.6 | 0.00 | 0.00 | 0.00 | 65 | 1013.3 |
| 20260506023123 | 65 | 119 | 3.5 | 17.4 | 0.00 | 0.00 | 0.00 | 63 | 1013.3 |
| 20260506022123 | 66 | 121 | 4.3 | 14.8 | 0.00 | 0.00 | 0.00 | 61 | 1013.0 |
| 20260506021123 | 66 | 132 | 6.1 | 18.2 | 0.00 | 0.00 | 0.00 | 60 | 1013.0 |
| 20260506020124 | 67 | 147 | 5.2 | 15.6 | 0.00 | 0.00 | 0.00 | 59 | 1012.9 |
| 20260506015124 | 67 | 126 | 7.0 | 20.0 | 0.00 | 0.00 | 0.00 | 59 | 1012.9 |
| 20260506014123 | 67 | 127 | 7.0 | 20.0 | 0.00 | 0.00 | 0.00 | 59 | 1012.9 |
| 20260506013123 | 67 | 144 | 5.2 | 18.2 | 0.00 | 0.00 | 0.00 | 57 | 1012.9 |
| 20260506012123 | 68 | 141 | 7.0 | 16.5 | 0.00 | 0.00 | 0.00 | 56 | 1012.9 |
| 20260506011123 | 68 | 136 | 6.1 | 14.8 | 0.00 | 0.00 | 0.00 | 55 | 1012.9 |
| 20260506010123 | 69 | 138 | 4.3 | 15.6 | 0.00 | 0.00 | 0.00 | 54 | 1012.8 |
| 20260506005124 | 69 | 109 | 7.0 | 15.6 | 0.00 | 0.00 | 0.00 | 53 | 1012.8 |
| 20260506004124 | 70 | 135 | 5.2 | 15.6 | 0.00 | 0.00 | 0.00 | 52 | 1012.8 |
| 20260506003124 | 71 | 130 | 6.1 | 19.1 | 0.00 | 0.00 | 0.00 | 49 | 1012.8 |
| 20260506002123 | 72 | 142 | 6.1 | 21.7 | 0.00 | 0.00 | 0.00 | 48 | 1012.8 |
| 20260506001123 | 72 | 126 | 6.1 | 15.6 | 0.00 | 0.00 | 0.00 | 48 | 1012.8 |
| 20260506000144 | 72 | 142 | 5.2 | 20.0 | 0.00 | 0.00 | 0.00 | 48 | 1012.9 |
| 20260505235123 | 72 | 152 | 6.1 | 15.6 | 0.00 | 0.00 | 0.00 | 47 | 1012.9 |
| 20260505234123 | 72 | 137 | 4.3 | 15.6 | 0.00 | 0.00 | 0.00 | 46 | 1012.9 |
| 20260505233124 | 72 | 133 | 4.3 | 15.6 | 0.00 | 0.00 | 0.00 | 45 | 1012.9 |
| 20260505232124 | 73 | 124 | 5.2 | 16.5 | 0.00 | 0.00 | 0.00 | 44 | 1012.9 |
| 20260505231124 | 73 | 150 | 4.3 | 13.9 | 0.00 | 0.00 | 0.00 | 42 | 1012.9 |
| 20260505230123 | 73 | 140 | 5.2 | 16.5 | 0.00 | 0.00 | 0.00 | 43 | 1012.9 |
| 20260505225123 | 74 | 138 | 4.3 | 12.2 | 0.00 | 0.00 | 0.00 | 40 | 1012.9 |
| 20260505224123 | 74 | 137 | 4.3 | 15.6 | 0.00 | 0.00 | 0.00 | 40 | 1012.9 |
| 20260505223123 | 74 | 135 | 5.2 | 20.0 | 0.00 | 0.00 | 0.00 | 40 | 1012.9 |
| 20260505222123 | 74 | 126 | 5.2 | 16.5 | 0.00 | 0.00 | 0.00 | 40 | 1013.0 |
| 20260505221125 | 74 | 139 | 6.1 | 16.5 | 0.00 | 0.00 | 0.00 | 40 | 1013.0 |
| 20260505220124 | 74 | 130 | 4.3 | 15.6 | 0.00 | 0.00 | 0.00 | 39 | 1013.0 |
| 20260505215123 | 75 | 138 | 3.5 | 13.9 | 0.00 | 0.00 | 0.00 | 38 | 1012.9 |
| 20260505214123 | 75 | 143 | 5.2 | 15.6 | 0.00 | 0.00 | 0.00 | 35 | 1013.0 |
| 20260505213123 | 75 | 134 | 4.3 | 12.2 | 0.00 | 0.00 | 0.00 | 33 | 1013.0 |
| 20260505212123 | 75 | 133 | 3.5 | 11.3 | 0.00 | 0.00 | 0.00 | 35 | 1013.2 |
| 20260505211123 | 75 | 109 | 3.5 | 11.3 | 0.00 | 0.00 | 0.00 | 35 | 1013.2 |
| 20260505210123 | 75 | 125 | 7.0 | 20.0 | 0.00 | 0.00 | 0.00 | 35 | 1013.4 |
| 20260505205125 | 75 | 138 | 5.2 | 12.2 | 0.00 | 0.00 | 0.00 | 35 | 1013.4 |
| 20260505204125 | 75 | 133 | 4.3 | 12.2 | 0.00 | 0.00 | 0.00 | 34 | 1013.5 |
| 20260505203123 | 74 | 129 | 5.2 | 13.9 | 0.00 | 0.00 | 0.00 | 35 | 1013.5 |
| 20260505202123 | 75 | 116 | 5.2 | 13.9 | 0.00 | 0.00 | 0.00 | 35 | 1013.5 |
| 20260505201144 | 75 | 146 | 2.6 | 13.0 | 0.00 | 0.00 | 0.00 | 34 | 1013.5 |
| 20260505200123 | 75 | 131 | 2.6 | 11.3 | 0.00 | 0.00 | 0.00 | 33 | 1013.5 |
| 20260505195123 | 74 | 141 | 5.2 | 13.9 | 0.00 | 0.00 | 0.00 | 34 | 1013.9 |
| 20260505194125 | 74 | 131 | 5.2 | 15.6 | 0.00 | 0.00 | 0.00 | 34 | 1013.9 |
| 20260505193146 | 74 | 156 | 5.2 | 14.8 | 0.00 | 0.00 | 0.00 | 33 | 1013.9 |
| 20260505192124 | 73 | 152 | 5.2 | 17.4 | 0.00 | 0.00 | 0.00 | 35 | 1013.8 |
| 20260505191123 | 73 | 131 | 5.2 | 20.0 | 0.00 | 0.00 | 0.00 | 35 | 1013.9 |
| 20260505190144 | 72 | 151 | 5.2 | 13.9 | 0.00 | 0.00 | 0.00 | 36 | 1013.9 |
| 20260505185123 | 72 | 138 | 5.2 | 15.6 | 0.00 | 0.00 | 0.00 | 37 | 1014.0 |
| 20260505184123 | 71 | 144 | 6.1 | 18.2 | 0.00 | 0.00 | 0.00 | 38 | 1014.0 |
| 20260505183123 | 70 | 157 | 4.3 | 15.6 | 0.00 | 0.00 | 0.00 | 39 | 1014.0 |
| 20260505182124 | 71 | 147 | 4.3 | 15.6 | 0.00 | 0.00 | 0.00 | 39 | 1014.0 |
| 20260505181124 | 70 | 130 | 6.1 | 17.4 | 0.00 | 0.00 | 0.00 | 39 | 1014.2 |
| 20260505180125 | 69 | 130 | 5.2 | 19.1 | 0.00 | 0.00 | 0.00 | 42 | 1014.3 |
| 20260505175123 | 68 | 129 | 5.2 | 15.6 | 0.00 | 0.00 | 0.00 | 44 | 1014.2 |
| 20260505174144 | 67 | 124 | 4.3 | 13.0 | 0.00 | 0.00 | 0.00 | 47 | 1014.4 |
| 20260505173123 | 67 | 121 | 3.5 | 12.2 | 0.00 | 0.00 | 0.00 | 47 | 1014.4 |
| 20260505172144 | 66 | 133 | 4.3 | 13.9 | 0.00 | 0.00 | 0.00 | 48 | 1014.4 |
| 20260505171123 | 66 | 127 | 4.3 | 14.8 | 0.00 | 0.00 | 0.00 | 48 | 1014.4 |
| 20260505170124 | 66 | 134 | 1.7 | 9.6 | 0.00 | 0.00 | 0.00 | 48 | 1014.5 |
| 20260505165124 | 65 | 143 | 0.9 | 4.3 | 0.00 | 0.00 | 0.00 | 50 | 1014.5 |
| 20260505164123 | 67 | 152 | 0.0 | 2.6 | 0.00 | 0.00 | 0.00 | 47 | 1014.5 |
| 20260505163123 | 64 | 135 | 0.0 | 0.0 | 0.00 | 0.00 | 0.00 | 53 | 1014.5 |
| 20260505162122 | 65 | 130 | 0.0 | 2.6 | 0.00 | 0.00 | 0.00 | 53 | 1014.5 |
| 20260505161122 | 62 | 135 | 0.0 | 0.0 | 0.00 | 0.00 | 0.00 | 61 | 1014.7 |
| 20260505160122 | 61 | 135 | 0.0 | 0.0 | 0.00 | 0.00 | 0.00 | 63 | 1014.8 |
| 20260505153125 | 55 | 135 | 0.0 | 0.0 | 0.00 | 0.00 | 0.00 | 75 | 1015.0 |
| 20260505152124 | 55 | 135 | 0.0 | 0.0 | 0.00 | 0.00 | 0.00 | 75 | 1015.0 |
| 20260505151122 | 52 | 158 | 0.0 | 0.0 | 0.00 | 0.00 | 0.00 | 80 | 1015.0 |
| 20260505150123 | 51 | 158 | 0.0 | 0.0 | 0.00 | 0.00 | 0.00 | 82 | 1015.0 |